sat.trackr.live / text

‹ back to catalog

STARLINK-5330

NORAD 55282 · 2023-010P

PAYLOAD ACTIVE UNKNOWN

§ Identity

Operator
Country
US
Launch date
2023-01-19
Launch site
AFWTR
Launch vehicle
Mass (kg)
RCS (m²)

Purposes: comms

External: N2YO · Heavens-Above · Gunter

§ Orbital elements

Epoch: 2026-09-19T10:48:25.871616Z

Period
96.08 min
Inclination
69.9981°
Eccentricity
0.0002429
Mean motion
14.98723693 rev/d
Perigee alt
569.2 km
Apogee alt
572.5 km
Semi-major
6,949.0 km
B*
3.9772e-3
RAAN
275.7406°
Arg perigee
232.8158°
Mean anomaly
127.2779°
Rev number
20,180

§ Raw data

STARLINK-53301 55282U 23010P   26262.45029944  .00048177  00000+0  39772-2 0  99992 55282  69.9981 275.7406 0002429 232.8158 127.2779 14.98723693201801

JSON: /api/v1/satellites/55282 · /tle

For live sub-satellite position, see the globe view (requires WebGL).

§ Visibility from observer

Set your observer location to see the next 7 days of passes ≥ 10°. The values pass through the URL so the page stays shareable.

No JS? Fill the form by hand. The geolocation button needs JavaScript.